KLM91N EHAM-EGCC

Flight info

Callsign KLM91N
Flight time 0h 55m
Altitude 34000
Route BERGI L60 OTBED
Aircraft E190/M-SDE3GILORVW/S

Departure

Time 2026-04-30 18:42
Airport Amsterdam Airport Schiphol (EHAM)

Arrival

Time 2026-04-30 19:38
Airport Manchester Airport (EGCC)
Time Latitude Longitude Altitude Speed Heading
2026-04-30 18:06 52.30391 4.76157 -2 ft 0 kts 57°
2026-04-30 18:26 52.30383 4.76137 -2 ft 4 kts 62°
2026-04-30 18:26 52.30374 4.76098 -2 ft 4 kts 97°
2026-04-30 18:27 52.30380 4.76074 -2 ft 0 kts 147°
2026-04-30 18:31 52.30330 4.76130 -2 ft 9 kts 147°
2026-04-30 18:32 52.30224 4.76238 -2 ft 8 kts 151°
2026-04-30 18:32 52.30175 4.76209 -2 ft 9 kts 231°
2026-04-30 18:32 52.30086 4.75977 -2 ft 15 kts 238°
2026-04-30 18:33 52.30027 4.75823 -2 ft 17 kts 238°
2026-04-30 18:33 52.29903 4.75502 -2 ft 14 kts 238°
2026-04-30 18:33 52.29854 4.75373 -2 ft 13 kts 238°
2026-04-30 18:34 52.29836 4.75225 -2 ft 15 kts 284°
2026-04-30 18:34 52.29987 4.74925 -2 ft 20 kts 311°
2026-04-30 18:34 52.30082 4.74750 0 ft 21 kts 311°
2026-04-30 18:35 52.30168 4.74591 9 ft 18 kts 311°
2026-04-30 18:35 52.30256 4.74427 9 ft 20 kts 311°
2026-04-30 18:35 52.30330 4.74289 -3 ft 14 kts 311°
2026-04-30 18:36 52.30473 4.74197 -2 ft 14 kts
2026-04-30 18:36 52.30580 4.74207 -2 ft 17 kts
2026-04-30 18:36 52.30840 4.74232 -2 ft 21 kts
2026-04-30 18:37 52.30991 4.74247 -2 ft 23 kts
2026-04-30 18:37 52.31131 4.74259 -2 ft 19 kts
2026-04-30 18:37 52.31253 4.74270 -2 ft 16 kts
2026-04-30 18:37 52.31341 4.74280 -2 ft 11 kts
2026-04-30 18:38 52.31392 4.74371 -2 ft 13 kts 81°
2026-04-30 18:38 52.31397 4.74524 -2 ft 14 kts 88°
2026-04-30 18:38 52.31410 4.74643 -2 ft 10 kts 54°
2026-04-30 18:38 52.31479 4.74671 -2 ft 12 kts 357°
2026-04-30 18:39 52.31545 4.74665 -2 ft 7 kts 356°
2026-04-30 18:39 52.31560 4.74663 -2 ft 0 kts 356°
2026-04-30 18:39 52.31571 4.74662 -2 ft 5 kts 356°
2026-04-30 18:39 52.31621 4.74664 -2 ft 8 kts 13°
2026-04-30 18:40 52.31665 4.74732 -2 ft 8 kts 71°
2026-04-30 18:40 52.31667 4.74756 -2 ft 0 kts 85°
2026-04-30 18:41 52.31667 4.74758 -2 ft 1 kts 85°
2026-04-30 18:42 52.31677 4.75030 -5 ft 62 kts 86°
2026-04-30 18:42 52.31794 4.77895 557 ft 162 kts 87°
2026-04-30 18:42 52.31964 4.79821 1186 ft 191 kts 79°
2026-04-30 18:45 52.44411 4.69699 5982 ft 219 kts 316°
2026-04-30 18:45 52.45547 4.67852 6268 ft 241 kts 315°
2026-04-30 18:45 52.46855 4.65965 6902 ft 260 kts 329°
2026-04-30 18:46 52.48520 4.64602 7550 ft 276 kts 341°
2026-04-30 18:46 52.50386 4.63482 8206 ft 294 kts 343°
2026-04-30 18:46 52.52354 4.62311 8997 ft 306 kts 342°
2026-04-30 18:46 52.54353 4.61050 9991 ft 309 kts 341°
2026-04-30 18:47 52.56380 4.59743 10772 ft 321 kts 341°
2026-04-30 18:47 52.58516 4.58367 11368 ft 336 kts 341°
2026-04-30 18:47 52.60713 4.56944 12217 ft 343 kts 341°
2026-04-30 18:47 52.62922 4.55364 13167 ft 350 kts 331°
2026-04-30 18:48 52.64722 4.52653 14189 ft 357 kts 304°
2026-04-30 18:48 52.65805 4.49329 15104 ft 359 kts 293°
2026-04-30 18:48 52.66458 4.46750 15785 ft 362 kts 291°
2026-04-30 18:48 52.67418 4.42893 16753 ft 367 kts 291°
2026-04-30 18:49 52.68674 4.38088 17845 ft 374 kts 292°
2026-04-30 18:49 52.69366 4.35481 18420 ft 377 kts 292°
2026-04-30 18:49 52.70424 4.31487 19203 ft 382 kts 292°
2026-04-30 18:49 52.71472 4.27525 20055 ft 384 kts 292°
2026-04-30 18:50 52.72532 4.23535 20963 ft 385 kts 292°
2026-04-30 18:50 52.73600 4.19477 21759 ft 387 kts 292°
2026-04-30 18:50 52.74664 4.15375 22492 ft 391 kts 292°
2026-04-30 18:50 52.75725 4.11225 23171 ft 395 kts 292°
2026-04-30 18:51 52.76790 4.07019 23831 ft 399 kts 292°
2026-04-30 18:51 52.77860 4.02766 24415 ft 403 kts 291°
2026-04-30 18:51 52.78928 3.98515 25012 ft 406 kts 291°
2026-04-30 18:51 52.80002 3.94205 25692 ft 406 kts 291°
2026-04-30 18:52 52.81084 3.89855 26216 ft 412 kts 291°
2026-04-30 18:52 52.82159 3.85469 26778 ft 413 kts 291°
2026-04-30 18:52 52.83242 3.81060 27323 ft 417 kts 291°
2026-04-30 18:52 52.84324 3.76603 27899 ft 419 kts 291°
2026-04-30 18:53 52.85403 3.72125 28439 ft 420 kts 291°
2026-04-30 18:53 52.86489 3.67583 28833 ft 425 kts 290°
2026-04-30 18:53 52.87573 3.63027 29365 ft 427 kts 291°
2026-04-30 18:53 52.88666 3.58434 29787 ft 430 kts 290°
2026-04-30 18:54 52.89760 3.53782 30163 ft 435 kts 290°
2026-04-30 18:54 52.90848 3.49139 30534 ft 439 kts 290°
2026-04-30 18:54 52.91947 3.44449 30953 ft 440 kts 290°
2026-04-30 18:54 52.93008 3.39894 31312 ft 441 kts 289°
2026-04-30 18:55 52.94110 3.35124 31608 ft 444 kts 290°
2026-04-30 18:55 52.96314 3.25564 32231 ft 448 kts 290°
2026-04-30 18:55 52.97422 3.20730 32529 ft 450 kts 289°
2026-04-30 18:56 52.99302 3.11212 33214 ft 448 kts 286°
2026-04-30 18:56 53.00170 3.06594 33611 ft 447 kts 286°
2026-04-30 18:56 53.01007 3.02167 33958 ft 446 kts 286°
2026-04-30 18:57 53.02858 2.92411 34319 ft 451 kts 286°
2026-04-30 18:57 53.04769 2.82344 34337 ft 462 kts 286°
2026-04-30 18:58 53.07673 2.66971 34286 ft 466 kts 286°
2026-04-30 18:59 53.10548 2.51603 34281 ft 465 kts 284°
2026-04-30 19:00 53.12477 2.30372 34289 ft 464 kts 275°
2026-04-30 19:01 53.14182 2.09053 34284 ft 464 kts 275°
2026-04-30 19:02 53.15445 1.93038 34281 ft 465 kts 275°
2026-04-30 19:03 53.17101 1.71631 34281 ft 466 kts 275°
2026-04-30 19:04 53.18720 1.50211 34274 ft 466 kts 274°
2026-04-30 19:05 53.20296 1.28853 34272 ft 465 kts 274°
2026-04-30 19:06 53.21854 1.07400 34266 ft 465 kts 274°
2026-04-30 19:06 53.22995 0.91297 34260 ft 466 kts 273°
2026-04-30 19:07 53.24121 0.75177 34252 ft 466 kts 273°
2026-04-30 19:08 53.25585 0.53686 34254 ft 465 kts 273°
2026-04-30 19:09 53.26650 0.37662 34259 ft 464 kts 272°
2026-04-30 19:09 53.27329 0.27085 34110 ft 442 kts 272°
2026-04-30 19:10 53.27972 0.16995 32747 ft 429 kts 272°
2026-04-30 19:10 53.28590 0.07265 31621 ft 414 kts 272°
2026-04-30 19:11 53.29051 0.02540 31005 ft 414 kts 283°
2026-04-30 19:11 53.31437 -0.06312 29871 ft 424 kts 293°
2026-04-30 19:11 53.32765 -0.10726 29358 ft 428 kts 293°
2026-04-30 19:12 53.34098 -0.15204 28774 ft 431 kts 293°
2026-04-30 19:12 53.35429 -0.19710 28203 ft 433 kts 293°
2026-04-30 19:12 53.36759 -0.24235 27647 ft 432 kts 293°
2026-04-30 19:13 53.39380 -0.33209 26504 ft 425 kts 293°
2026-04-30 19:13 53.41944 -0.42037 25393 ft 417 kts 293°
2026-04-30 19:13 53.43190 -0.46343 24848 ft 414 kts 293°
2026-04-30 19:14 53.44444 -0.50689 24321 ft 411 kts 293°
2026-04-30 19:14 53.45683 -0.54990 23764 ft 409 kts 293°
2026-04-30 19:14 53.46912 -0.59268 23238 ft 403 kts 293°
2026-04-30 19:14 53.48127 -0.63499 22695 ft 401 kts 293°
2026-04-30 19:15 53.49321 -0.67681 22176 ft 397 kts 293°
2026-04-30 19:15 53.51686 -0.75999 21129 ft 391 kts 293°
2026-04-30 19:15 53.52851 -0.80109 20613 ft 388 kts 293°
2026-04-30 19:16 53.54007 -0.84193 20086 ft 385 kts 293°
2026-04-30 19:16 53.55150 -0.88242 19586 ft 382 kts 293°
2026-04-30 19:16 53.57406 -0.96249 18585 ft 376 kts 293°
2026-04-30 19:17 53.58519 -1.00207 18076 ft 372 kts 293°
2026-04-30 19:17 53.60677 -1.07982 17365 ft 363 kts 288°
2026-04-30 19:17 53.61392 -1.12047 17313 ft 363 kts 281°
2026-04-30 19:18 53.62312 -1.19011 17192 ft 364 kts 278°
2026-04-30 19:18 53.62727 -1.24666 16313 ft 364 kts 275°
2026-04-30 19:18 53.63334 -1.28761 16205 ft 354 kts 284°
2026-04-30 19:19 53.64053 -1.32638 16398 ft 340 kts 283°
2026-04-30 19:19 53.64668 -1.36456 16508 ft 344 kts 281°
2026-04-30 19:19 53.65803 -1.44562 16023 ft 359 kts 279°
2026-04-30 19:20 53.66355 -1.48671 15773 ft 359 kts 279°
2026-04-30 19:20 53.66896 -1.52725 16024 ft 348 kts 279°
2026-04-30 19:20 53.67986 -1.61000 15430 ft 363 kts 278°
2026-04-30 19:21 53.68531 -1.65145 14995 ft 359 kts 278°
2026-04-30 19:21 53.69587 -1.73183 14378 ft 336 kts 278°
2026-04-30 19:22 53.70539 -1.80445 14308 ft 300 kts 277°
2026-04-30 19:22 53.71898 -1.91077 13185 ft 320 kts 278°
2026-04-30 19:23 53.73301 -2.01955 11805 ft 312 kts 277°
2026-04-30 19:24 53.74200 -2.08988 11415 ft 290 kts 276°
2026-04-30 19:24 53.74283 -2.12216 12475 ft 271 kts 262°
2026-04-30 19:24 53.73993 -2.19062 12302 ft 291 kts 252°
2026-04-30 19:25 53.69962 -2.25597 13314 ft 274 kts 210°
2026-04-30 19:26 53.66959 -2.29077 13027 ft 249 kts 210°
2026-04-30 19:26 53.64242 -2.32254 12362 ft 228 kts 210°
2026-04-30 19:26 53.62953 -2.33760 11950 ft 224 kts 210°
2026-04-30 19:27 53.60332 -2.36786 10971 ft 240 kts 210°
2026-04-30 19:27 53.57456 -2.39982 10032 ft 252 kts 210°
2026-04-30 19:28 53.55992 -2.41602 9501 ft 252 kts 210°
2026-04-30 19:28 53.53073 -2.44818 8472 ft 251 kts 210°
2026-04-30 19:29 53.50120 -2.48063 7482 ft 256 kts 210°
2026-04-30 19:29 53.48642 -2.49693 6993 ft 251 kts 210°
2026-04-30 19:30 53.44394 -2.54304 5488 ft 235 kts 204°
2026-04-30 19:30 53.41248 -2.55176 4487 ft 232 kts 184°
2026-04-30 19:31 53.38093 -2.55772 4202 ft 221 kts 185°
2026-04-30 19:31 53.36622 -2.56050 4860 ft 217 kts 185°
2026-04-30 19:31 53.33424 -2.56568 4242 ft 227 kts 184°
2026-04-30 19:32 53.31904 -2.56789 3964 ft 225 kts 182°
2026-04-30 19:32 53.30394 -2.57013 3928 ft 213 kts 182°
2026-04-30 19:32 53.28955 -2.57228 3867 ft 202 kts 182°
2026-04-30 19:32 53.27564 -2.57425 3753 ft 201 kts 181°
2026-04-30 19:33 53.26185 -2.57296 3524 ft 199 kts 157°
2026-04-30 19:33 53.25168 -2.55838 3370 ft 197 kts 123°
2026-04-30 19:33 53.24802 -2.53588 3154 ft 208 kts 97°
2026-04-30 19:33 53.25097 -2.51184 2878 ft 216 kts 73°
2026-04-30 19:34 53.25733 -2.48920 2624 ft 215 kts 73°
2026-04-30 19:34 53.26265 -2.46626 2447 ft 209 kts 77°
2026-04-30 19:34 53.27871 -2.42720 2041 ft 206 kts 50°
2026-04-30 19:35 53.28897 -2.41155 1848 ft 192 kts 53°
2026-04-30 19:35 53.29457 -2.40082 1754 ft 177 kts 59°
2026-04-30 19:35 53.30115 -2.38482 1639 ft 161 kts 64°
2026-04-30 19:35 53.30780 -2.36993 1360 ft 161 kts 58°
2026-04-30 19:36 53.31484 -2.35562 1113 ft 155 kts 57°
2026-04-30 19:36 53.32128 -2.34237 991 ft 142 kts 56°
2026-04-30 19:36 53.33244 -2.31866 662 ft 123 kts 58°
2026-04-30 19:37 53.33812 -2.30718 509 ft 130 kts 51°
2026-04-30 19:37 53.34376 -2.29545 361 ft 129 kts 50°
2026-04-30 19:37 53.34941 -2.28387 238 ft 125 kts 50°
2026-04-30 19:37 53.35420 -2.27403 243 ft 80 kts 51°
2026-04-30 19:38 53.35615 -2.26998 258 ft 29 kts 51°
2026-04-30 19:38 53.35760 -2.26699 268 ft 34 kts 51°
2026-04-30 19:38 53.35886 -2.26439 267 ft 32 kts 51°
2026-04-30 19:38 53.36002 -2.26201 260 ft 15 kts 51°
2026-04-30 19:39 53.36064 -2.26153 256 ft 11 kts 332°
2026-04-30 19:39 53.36127 -2.26238 254 ft 9 kts 319°
2026-04-30 19:39 53.36132 -2.26338 254 ft 11 kts 237°
2026-04-30 19:39 53.36092 -2.26424 254 ft 0 kts 231°
2026-04-30 19:40 53.36085 -2.26439 254 ft 3 kts 231°
2026-04-30 19:40 53.36064 -2.26483 254 ft 6 kts 231°
2026-04-30 19:40 53.36030 -2.26552 254 ft 9 kts 230°
2026-04-30 19:40 53.35994 -2.26624 255 ft 8 kts 230°
2026-04-30 19:41 53.35962 -2.26690 255 ft 8 kts 230°
2026-04-30 19:41 53.35922 -2.26776 255 ft 11 kts 233°
2026-04-30 19:41 53.35885 -2.26864 254 ft 9 kts 235°
2026-04-30 19:41 53.35843 -2.26962 254 ft 12 kts 235°
2026-04-30 19:42 53.35798 -2.27083 254 ft 10 kts 232°
2026-04-30 19:42 53.35749 -2.27183 254 ft 12 kts 231°
2026-04-30 19:42 53.35693 -2.27301 254 ft 13 kts 231°
2026-04-30 19:42 53.35640 -2.27413 246 ft 12 kts 231°
2026-04-30 19:43 53.35629 -2.27529 245 ft 12 kts 306°
2026-04-30 19:43 53.35697 -2.27617 246 ft 13 kts 335°
2026-04-30 19:43 53.35766 -2.27663 249 ft 9 kts 334°
2026-04-30 19:44 53.35875 -2.27728 254 ft 8 kts
2026-04-30 19:44 53.35938 -2.27726 254 ft 10 kts 357°
2026-04-30 19:44 53.36010 -2.27781 254 ft 13 kts 323°
2026-04-30 19:44 53.36086 -2.27880 254 ft 15 kts 322°
2026-04-30 19:45 53.36168 -2.27989 254 ft 14 kts 319°
2026-04-30 19:45 53.36224 -2.28068 254 ft 10 kts 336°
2026-04-30 19:45 53.36297 -2.28059 254 ft 12 kts 17°
2026-04-30 19:45 53.36363 -2.27982 254 ft 9 kts 44°
2026-04-30 19:46 53.36395 -2.27907 254 ft 8 kts 81°
2026-04-30 19:46 53.36362 -2.27816 254 ft 10 kts 131°
2026-04-30 19:46 53.36337 -2.27721 254 ft 3 kts 105°
2026-04-30 19:46 53.36332 -2.27673 254 ft 5 kts 83°
2026-04-30 19:47 53.36364 -2.27647 254 ft 6 kts 14°
2026-04-30 19:47 53.36385 -2.27638 254 ft 2 kts 14°
2026-04-30 19:47 53.36386 -2.27637 254 ft 0 kts 14°